Birmingham, AL

12:57 AM CST on February 23, 2018 (GMT -0600)
Birmingham International

Weather History for KBHM - July, 2013

Change the Weather History Date:

Sunday, July 28, 2013

  Actual Average Record
Temperature  
Mean Temperature 80 °F 81 °F  
Max Temperature 88 °F 91 °F 105 °F (1952)
Min Temperature 72 °F 72 °F 60 °F (1911)
Cooling Degree Days 15 16  
Month to date cooling degree days 373 445  
Year to date cooling degree days 1059 1109  
Since 1 June cooling degree days 794 827  
Growing Degree Days 30 (Base 50)    
Moisture  
Dew Point 69 °F    
Average Humidity 70    
Maximum Humidity 87    
Minimum Humidity 53    
Precipitation  
Precipitation 0.00 in 0.15 in 2.48 in (1977)
Month to date precipitation 7.84 4.37  
Year to date precipitation 47.01 32.72  
Sea Level Pressure  
Sea Level Pressure 30.00 in    
Wind  
Wind Speed 3 mph (North)    
Max Wind Speed 10 mph    
Max Gust Speed 13 mph    
Visibility 10 miles    
Events      
T = Trace of Precipitation, MM = Missing Value Source: NWS Daily Summary

Daily Weather History Graph

Daily Weather History Graph

Search for Another Location

Airport or City:

Trip Planner

Search our weather history database for the weather conditions in past years. The results will help you decide how hot, cold, wet, or windy it might be!

Date:

Astronomy

Jul. 28, 2013 Rise Set
Actual Time 5:56 AM CDT 7:49 PM CDT
Civil Twilight 5:29 AM CDT 8:17 PM CDT
Nautical Twilight 4:55 AM CDT 8:50 PM CDT
Astronomical Twilight 4:20 AM CDT 9:25 PM CDT
Moon 11:35 PM CDT (7/28) 12:15 PM CDT (7/28)
Length of Visible Light 14h 48m
Length of Day
13h 53m
Waning Gibbous, 60% of the Moon is Illuminated
Jul 28
Waning Gibbous
Jul 29
Last Quarter
Aug 6
New
Aug 14
First Quarter
Aug 20
Full

Hourly Weather History & Observations

Time (CDT) Temp. Heat Index Dew Point Humidity Pressure Visibility Wind Dir Wind Speed Gust Speed Precip Events Conditions
12:53 AM 75.0 °F - 69.1 °F 82% 29.95 in 10.0 mi Calm Calm - N/A   Mostly Cloudy
1:53 AM 73.9 °F - 69.1 °F 85% 29.94 in 10.0 mi South 3.5 mph - N/A   Partly Cloudy
2:53 AM 73.9 °F - 70.0 °F 87% 29.94 in 10.0 mi Calm Calm - N/A   Overcast
3:53 AM 75.0 °F - 68.0 °F 79% 29.96 in 10.0 mi West 5.8 mph - N/A   Overcast
4:53 AM 73.0 °F - 68.0 °F 84% 29.94 in 10.0 mi Calm Calm - N/A   Mostly Cloudy
5:53 AM 73.0 °F - 69.1 °F 87% 29.98 in 10.0 mi SSE 3.5 mph - N/A   Overcast
6:53 AM 73.9 °F - 70.0 °F 87% 29.98 in 9.0 mi Calm Calm - N/A   Scattered Clouds
7:21 AM 73.4 °F - 69.8 °F 88% 30.01 in 9.0 mi North 4.6 mph - N/A   Scattered Clouds
7:53 AM 75.0 °F - 70.0 °F 84% 29.99 in 8.0 mi Calm Calm - N/A   Mostly Cloudy
8:53 AM 77.0 °F - 70.0 °F 79% 30.00 in 9.0 mi Calm Calm - N/A   Mostly Cloudy
9:28 AM 78.8 °F - 69.8 °F 74% 30.03 in 10.0 mi NNE 3.5 mph - N/A   Scattered Clouds
9:53 AM 82.0 °F 85.9 °F 70.0 °F 67% 30.02 in 10.0 mi North 5.8 mph - N/A   Scattered Clouds
10:05 AM 80.6 °F 83.9 °F 69.8 °F 70% 30.03 in 10.0 mi Calm Calm - N/A   Mostly Cloudy
10:53 AM 82.9 °F 85.8 °F 68.0 °F 60% 30.01 in 10.0 mi Variable 4.6 mph - N/A   Mostly Cloudy
11:31 AM 82.4 °F 86.3 °F 69.8 °F 66% 30.03 in 10.0 mi Variable 3.5 mph - N/A   Mostly Cloudy
11:53 AM 84.0 °F 87.8 °F 69.1 °F 61% 30.01 in 10.0 mi NNE 5.8 mph - N/A   Mostly Cloudy
12:53 PM 84.9 °F 88.2 °F 68.0 °F 57% 30.01 in 10.0 mi North 8.1 mph - N/A   Mostly Cloudy
1:53 PM 84.9 °F 88.2 °F 68.0 °F 57% 29.99 in 10.0 mi NNW 3.5 mph - N/A   Mostly Cloudy
2:53 PM 87.1 °F 90.6 °F 68.0 °F 53% 29.99 in 10.0 mi Calm Calm - N/A   Mostly Cloudy
3:53 PM 88.0 °F 92.1 °F 69.1 °F 53% 29.98 in 10.0 mi North 3.5 mph - N/A   Scattered Clouds
4:53 PM 86.0 °F 89.4 °F 68.0 °F 55% 29.98 in 10.0 mi North 9.2 mph - N/A   Partly Cloudy
5:53 PM 84.9 °F 88.8 °F 69.1 °F 59% 29.98 in 10.0 mi North 5.8 mph - N/A   Partly Cloudy
6:53 PM 82.0 °F 85.9 °F 70.0 °F 67% 30.00 in 10.0 mi North 4.6 mph - N/A   Partly Cloudy
7:53 PM 79.0 °F - 70.0 °F 74% 30.01 in 10.0 mi North 4.6 mph - N/A   Clear
8:53 PM 78.1 °F - 69.1 °F 74% 30.03 in 10.0 mi NNE 3.5 mph - N/A   Clear
9:53 PM 75.0 °F - 69.1 °F 82% 30.05 in 10.0 mi Calm Calm - N/A   Clear
10:53 PM 75.9 °F - 66.9 °F 74% 30.06 in 10.0 mi NE 3.5 mph - N/A   Clear
11:53 PM 75.0 °F - 66.9 °F 76% 30.06 in 10.0 mi Calm Calm - N/A   Clear